Temperature
21 20 20 20 24 27 26 25 26 26 26 25 24 24 24 23 23 22 19 18 18 19 18 19 19 19 19 19 19 19 19 19 19 19 19 19 19 19 19 19 19 19 19 19 19 19 19 19 19
20 20 20 22 27 26 25 25 25 25 25 24 24 24 24 22 20 19 18 18 18 18 18 18 19 19 19 19 19 19 19 19 19 19 19 19 19 19 19 19 19 19 19 19 19 19 19 19 19
21 20 22 26 27 25 24 25 25 25 24 24 24 23 22 20 18 18 18 18 18 18 18 18 19 19 19 18 18 18 18 19 19 19 19 19 19 19 19 19 19 19 19 19 19 19 19 19 19
21 21 24 27 25 24 24 25 25 25 24 24 24 22 20 17 17 18 18 18 18 18 18 18 18 18 18 18 18 18 18 18 18 18 18 19 19 19 19 18 19 19 19 18 18 18 18 18 18
21 24 26 26 25 24 24 24 24 25 24 23 24 22 19 17 17 18 18 18 18 18 18 18 18 18 18 18 18 18 18 18 18 18 18 18 18 18 18 18 18 18 18 18 18 18 18 18 18
23 26 26 25 24 24 24 23 24 24 23 23 23 22 18 17 17 18 18 18 18 18 18 18 18 18 18 18 18 18 18 18 18 18 18 18 18 18 18 18 18 18 18 18 18 18 18 18 18
25 27 26 26 25 24 24 23 23 24 23 22 22 21 19 17 17 17 18 18 18 18 18 18 18 18 18 18 18 18 18 18 18 18 18 18 18 18 18 18 18 18 18 18 18 18 18 18 18
24 27 26 26 25 24 23 22 22 22 22 20 20 21 19 17 17 17 18 18 18 18 18 18 17 18 17 17 17 17 17 17 17 18 18 18 18 18 18 18 18 18 18 18 18 18 18 18 18
24 27 26 26 25 25 23 23 21 21 21 20 19 18 17 17 17 17 17 17 17 17 17 17 17 17 17 17 17 17 17 17 17 17 17 17 17 17 17 17 17 18 18 18 18 18 18 18 18
26 27 26 25 25 25 23 23 22 22 21 20 19 18 17 17 17 18 17 17 17 17 16 16 16 16 16 17 17 17 17 17 17 17 17 17 17 17 17 17 17 17 18 18 18 18 18 18 17
26 26 25 24 23 23 23 22 21 22 22 20 19 18 18 17 17 17 17 17 16 16 16 16 16 16 15 16 16 16 16 16 17 17 17 17 17 17 17 17 17 17 17 17 17 17 17 17 17
25 24 24 23 22 22 22 22 21 21 20 19 18 18 18 18 17 17 17 16 16 15 15 15 15 15 15 15 15 15 15 16 16 16 16 17 17 17 17 17 17 17 17 17 17 17 17 17 18
25 23 22 22 21 22 21 21 20 19 18 18 17 17 17 17 17 16 16 16 16 15 15 14 14 14 14 14 14 15 15 15 15 16 16 16 16 17 17 17 17 17 17 17 17 17 17 17 18
24 23 22 22 22 21 22 21 21 19 18 18 18 18 17 17 16 16 16 16 15 15 14 14 14 13 13 14 14 14 14 15 15 15 15 15 16 16 17 17 17 17 17 17 17 17 17 17 17
23 24 23 22 22 21 22 22 21 19 18 18 18 18 17 17 16 16 16 15 15 14 14 13 13 13 13 13 13 14 14 14 14 14 15 15 15 15 16 16 16 17 17 17 17 17 17 17 17
24 25 24 23 22 21 22 23 21 19 19 19 19 18 17 17 17 16 15 15 14 14 14 13 13 13 13 13 13 13 13 13 14 14 14 14 14 15 15 16 16 16 16 17 17 17 17 17 17
25 26 26 24 23 22 22 23 21 19 19 19 19 19 18 18 17 16 15 15 14 13 13 13 13 12 12 13 13 13 13 13 13 13 14 14 14 14 15 15 15 16 16 16 16 17 17 17 17
26 26 26 25 23 23 23 23 21 19 19 20 19 19 18 18 17 16 15 14 14 13 13 13 13 12 12 12 13 13 13 13 13 13 13 14 14 14 14 14 15 15 15 16 16 16 16 17 17
27 26 26 24 23 22 23 23 22 20 19 20 19 19 19 18 17 16 15 14 14 13 13 13 13 12 12 12 12 12 13 13 13 13 13 13 13 13 14 14 14 14 15 15 15 16 16 16 16
26 26 25 23 22 22 23 23 23 21 20 20 20 19 19 18 17 16 15 15 14 13 13 13 13 12 12 12 12 12 12 12 12 12 13 13 13 13 13 13 14 14 14 15 15 15 16 16 16
25 25 24 23 22 22 22 23 22 21 20 19 19 19 18 17 17 16 16 15 14 14 13 13 12 12 12 12 12 12 12 12 12 12 12 13 13 13 13 13 13 14 14 14 15 15 15 15 15
24 23 23 22 23 23 22 23 23 22 21 20 19 19 18 17 17 16 15 15 14 14 13 13 12 12 12 11 12 12 12 12 12 12 12 12 12 13 13 13 13 13 14 14 14 14 15 15 15
23 22 23 22 23 23 23 23 24 22 22 22 20 19 18 17 16 16 15 14 14 13 13 12 12 12 11 11 11 11 12 11 12 12 12 12 12 12 12 13 13 13 13 14 14 14 14 14 14
22 22 22 22 23 23 23 23 23 23 22 22 20 19 18 17 16 16 15 14 14 13 13 12 12 12 11 11 11 11 11 11 11 11 12 12 12 12 12 12 13 13 13 13 13 14 14 14 14
23 23 23 23 23 23 22 22 23 23 22 21 20 19 18 17 17 16 15 15 14 14 13 13 12 12 12 11 11 11 11 11 11 11 11 11 11 12 12 12 12 13 13 13 13 14 14 14 14
23 24 23 23 23 23 22 22 24 22 20 19 19 19 18 17 17 16 15 15 14 14 13 13 12 12 12 11 11 11 11 11 11 11 11 11 11 11 11 12 12 12 12 13 13 13 13 13 14
23 23 23 23 23 23 24 23 23 21 21 20 19 18 18 17 17 16 16 15 15 14 14 13 13 12 12 12 11 11 11 11 11 11 11 11 11 11 11 11 11 12 12 12 12 13 13 13 13
22 22 22 22 22 23 23 23 23 23 22 22 20 19 18 17 17 16 16 15 15 14 14 14 13 13 12 12 12 11 11 11 11 10 10 11 11 11 11 11 11 11 12 12 12 12 13 13 13
21 21 22 22 22 22 23 24 23 23 22 22 21 19 18 18 17 16 16 15 15 15 14 14 13 13 13 12 12 11 11 11 10 10 10 10 10 11 11 11 11 11 11 11 12 12 12 12 13
22 22 22 22 22 21 22 23 23 22 21 20 20 19 18 17 17 16 16 15 15 15 15 14 14 13 13 12 12 11 11 11 11 10 10 10 10 10 10 10 10 11 11 11 11 12 12 12 12
Wind_Speed
12 10 6 3 4 3 8 7 7 7 5 8 7 4 5 8 6 4 5 4 2 5 7 9 7 6 6 6 7 7 7 7 6 6 6 6 5 5 5 4 4 4 4 3 2 2 2 1 1
10 7 4 4 1 5 7 7 9 9 6 4 5 6 7 9 8 5 6 4 2 4 4 4 5 4 5 5 6 7 8 7 7 7 7 7 7 6 6 5 5 5 4 4 3 3 2 2 1
8 5 3 1 3 5 5 5 7 7 8 5 4 6 6 6 7 6 7 3 3 3 2 4 2 1 2 4 5 6 7 7 8 8 8 8 7 7 7 7 6 6 5 5 4 3 3 3 2
5 3 3 1 7 6 4 4 4 4 6 8 5 7 6 7 7 7 7 5 4 3 4 5 7 5 4 4 5 6 7 8 8 8 8 9 9 8 8 8 7 7 6 6 5 4 4 3 3
3 3 2 3 5 5 4 5 6 7 5 7 7 7 6 8 9 9 8 8 6 6 6 8 10 10 9 8 7 7 7 8 9 9 9 10 10 10 9 9 9 8 7 7 6 5 5 4 4
3 2 1 2 5 5 4 3 3 6 6 6 5 6 6 7 10 9 9 9 8 8 9 10 11 11 11 11 10 10 9 9 9 9 10 10 11 11 11 10 10 9 9 8 7 6 6 5 4
3 1 1 3 5 5 3 2 4 4 6 7 4 4 5 9 9 8 8 8 8 9 9 9 10 10 11 12 11 11 10 9 9 10 10 11 11 11 12 12 11 10 10 9 8 8 7 6 5
3 1 2 2 4 4 4 3 4 5 5 5 5 4 5 6 6 6 7 7 8 8 8 8 8 9 9 10 10 11 11 9 9 9 10 10 11 12 12 13 13 12 11 11 10 9 8 7 6
3 2 0 1 2 4 5 4 4 4 7 7 7 8 6 5 4 6 7 8 8 8 7 6 7 7 7 8 7 8 9 7 8 8 9 10 10 11 10 12 10 12 12 12 11 10 9 8 9
3 1 2 2 2 5 6 4 5 4 7 8 9 8 6 5 6 7 8 9 8 8 7 6 7 7 7 6 6 6 7 5 5 6 7 7 8 9 11 8 9 12 13 12 12 11 11 12 10
1 2 5 4 5 7 7 6 3 4 4 4 6 6 5 5 6 7 8 8 8 8 8 8 8 8 7 6 6 5 5 5 5 5 6 6 7 8 9 8 8 11 13 12 12 12 12 11 8
4 5 5 6 6 5 6 6 5 3 5 6 6 5 5 5 6 7 8 9 8 9 9 9 10 9 9 8 7 6 6 5 5 5 6 5 4 5 6 6 8 8 8 8 8 8 9 10 10
5 6 6 6 7 6 7 6 6 7 7 7 6 5 4 5 6 6 7 8 9 10 10 11 10 10 9 8 7 7 6 6 6 5 6 6 5 5 5 5 6 7 7 7 7 8 8 8 9
6 9 9 7 7 5 7 7 6 6 7 6 5 4 3 4 5 6 8 9 10 10 11 11 11 10 10 9 8 7 7 7 7 6 7 7 6 5 5 5 5 5 7 7 7 7 7 7 6
10 9 7 5 5 5 6 5 4 8 8 6 4 3 2 3 4 7 8 9 10 11 11 11 11 10 11 10 9 8 7 8 7 7 8 8 7 7 6 6 6 6 7 7 6 6 6 7 7
6 6 5 6 5 5 6 5 7 9 8 6 4 2 0 2 4 6 8 9 10 11 11 11 10 11 10 10 9 8 8 7 7 7 7 8 8 8 7 7 7 6 6 5 5 5 6 7 7
6 6 5 5 7 5 7 5 7 8 8 7 5 3 2 3 5 6 8 9 10 10 11 11 11 11 11 10 8 8 7 6 6 6 6 7 8 8 8 6 6 7 6 6 6 6 6 7 7
5 6 6 4 5 7 8 6 5 8 8 7 5 4 3 4 5 7 8 8 8 9 10 10 10 10 10 8 7 6 6 6 5 5 5 7 7 8 8 6 7 7 6 6 6 7 7 6 7
3 5 5 0 2 5 8 8 6 8 9 8 7 5 4 4 4 6 7 7 8 9 10 10 10 10 9 8 8 7 7 6 6 6 7 7 7 7 7 6 6 6 6 7 8 7 8 7 6
2 4 3 2 1 4 6 9 6 8 10 9 8 6 5 4 4 5 6 8 8 9 9 10 10 10 9 8 8 7 7 6 6 6 6 7 7 7 6 6 6 6 6 8 8 8 7 6 7
0 3 2 2 2 4 6 7 6 7 9 9 9 8 6 4 5 6 6 7 8 8 9 9 9 9 9 9 7 7 6 5 6 7 7 7 8 7 7 6 6 6 7 7 8 8 9 7 8
1 1 2 3 4 2 3 4 3 4 8 10 10 9 7 4 4 5 6 7 8 8 8 9 8 8 8 8 8 9 7 7 7 7 7 8 7 7 7 6 6 6 6 7 8 8 8 9 8
3 3 2 3 5 5 4 5 2 3 4 5 7 8 7 5 4 4 5 6 7 7 6 7 7 7 7 7 7 7 7 7 7 7 8 8 7 7 7 7 6 6 6 7 8 8 9 8 9
6 5 3 4 5 5 2 4 2 1 2 1 2 6 6 5 4 4 4 5 5 5 5 5 6 6 6 7 7 8 8 8 9 9 9 8 6 6 8 8 6 6 6 6 7 8 9 9 10
5 5 4 5 4 2 2 5 4 1 2 3 3 3 5 5 4 4 4 5 6 6 5 5 5 6 6 7 7 7 8 8 8 9 8 8 7 7 9 8 7 7 6 7 7 8 9 10 10
3 4 4 3 2 1 3 4 1 1 2 3 4 4 5 5 5 4 5 5 6 5 5 5 5 5 6 6 7 7 7 6 6 8 8 8 7 7 9 9 8 8 7 7 7 7 8 8 9
3 2 3 4 3 4 3 3 2 3 4 4 5 6 6 6 5 5 5 5 5 5 5 5 5 5 5 6 6 7 7 7 7 8 8 7 7 8 9 9 9 8 8 7 7 6 7 7 8
2 2 3 3 3 3 2 3 1 1 2 2 5 7 7 7 6 6 5 5 5 5 5 5 6 6 5 5 5 5 6 6 6 7 8 9 9 8 9 9 9 8 8 7 7 7 6 7 7
4 3 3 3 3 4 2 2 2 2 3 4 4 5 6 7 7 6 5 5 5 5 5 5 5 6 5 5 5 6 6 6 6 6 7 8 8 9 9 9 9 9 8 8 7 7 7 7 7
3 4 5 4 2 3 4 1 4 3 4 6 6 5 6 7 7 7 6 6 6 6 6 5 6 6 5 5 5 6 6 6 7 7 7 8 9 9 9 9 9 9 9 8 8 8 8 8 7
Wind_Direction
174 174 182 202 225 107 71 55 47 45 47 43 43 41 46 42 22 45 42 65 96 147 153 157 170 182 187 192 196 200 203 202 202 202 204 203 205 206 209 215 222 224 221 223 221 207 190 166 152
166 165 198 229 251 92 73 55 54 44 32 27 44 42 57 56 37 34 33 34 90 134 155 157 147 187 201 209 215 217 217 216 215 216 217 218 217 217 220 224 231 234 233 235 231 223 212 201 188
165 196 234 237 61 66 77 48 45 54 44 38 60 49 45 32 12 11 6 23 94 105 96 76 64 221 241 245 242 239 236 232 229 227 226 227 229 227 228 231 234 238 239 240 238 235 229 222 214
181 213 228 99 87 72 68 41 26 54 56 39 66 74 74 35 3 8 10 34 72 68 49 47 24 3 340 310 287 269 261 253 246 240 237 235 235 235 233 234 236 238 240 241 241 244 242 234 223
220 240 159 104 97 101 83 51 50 57 61 43 61 87 73 30 26 31 32 35 44 46 34 32 27 10 358 342 325 306 286 271 261 254 250 245 242 240 237 238 238 240 241 241 241 246 247 238 227
232 244 181 129 120 126 106 63 58 57 67 52 53 85 72 40 32 33 40 44 44 40 32 28 27 15 1 347 335 322 305 288 275 266 261 256 251 246 241 238 238 238 238 240 240 243 245 241 233
272 250 105 133 140 144 122 73 51 54 63 44 22 86 93 46 36 39 49 54 51 44 35 23 14 6 358 349 336 325 318 306 296 283 274 266 259 254 248 242 237 236 235 238 239 240 240 240 236
275 230 138 153 161 136 126 109 67 39 64 48 29 68 68 42 48 60 62 57 51 42 31 18 7 0 349 337 328 324 318 313 306 296 287 278 267 258 251 246 236 234 234 234 234 234 235 235 234
246 250 3 134 163 132 145 134 91 75 86 75 69 74 80 75 70 63 58 52 45 36 23 11 358 354 338 317 313 310 305 303 298 282 287 286 274 263 251 244 239 236 236 235 232 229 230 230 220
233 288 72 74 100 135 142 130 123 126 104 96 93 90 91 82 61 49 40 32 24 15 4 357 345 340 328 318 312 306 302 301 296 278 272 273 272 270 268 269 248 244 240 238 233 230 227 230 220
141 87 112 110 109 133 138 129 130 151 106 98 109 103 90 74 57 44 33 23 12 1 358 351 340 333 327 317 309 307 300 295 284 273 262 257 260 260 262 265 252 243 235 235 224 221 227 225 223
117 95 113 124 125 140 140 135 123 84 98 106 104 104 95 67 46 30 19 12 3 0 354 347 341 333 330 325 318 304 302 299 290 276 264 252 249 252 255 255 256 252 242 237 234 234 228 233 225
131 125 114 121 125 126 128 128 119 115 117 119 120 116 88 58 38 27 14 5 360 357 352 350 341 337 332 326 313 306 305 302 294 286 278 263 258 253 251 251 247 250 250 242 237 236 233 235 238
130 130 129 131 131 137 140 132 137 137 145 142 139 123 90 53 26 12 7 1 358 355 351 349 343 340 334 326 318 312 308 299 293 286 281 277 267 261 258 256 250 246 242 241 240 240 235 234 236
134 133 138 154 156 154 165 170 167 154 166 165 163 135 88 40 17 7 4 357 354 351 348 350 341 341 337 332 327 316 308 304 299 293 285 276 270 269 264 259 249 240 232 234 237 236 232 228 229
161 180 199 178 181 177 224 249 154 168 184 188 195 175 136 18 0 4 1 356 354 351 348 349 347 344 341 337 327 321 315 311 301 297 290 283 278 275 272 264 258 248 238 232 228 225 224 223 225
200 243 260 179 195 198 230 266 163 183 200 210 217 234 281 339 357 3 358 356 355 351 346 349 352 347 346 340 330 325 320 317 309 304 301 299 292 284 274 268 266 256 244 234 231 222 222 225 223
249 271 277 242 187 221 239 251 184 195 214 228 230 246 276 327 355 1 357 354 350 350 346 350 352 352 348 345 338 338 332 330 329 323 322 314 301 292 284 271 261 257 250 242 231 228 222 227 224
282 277 283 137 170 236 253 262 228 205 218 229 234 245 276 321 348 359 355 350 349 353 350 351 353 356 353 350 346 345 343 337 341 338 338 324 313 303 288 279 274 263 253 249 241 232 227 225 219
225 272 266 162 168 255 269 267 247 219 227 237 245 251 265 299 325 344 348 354 353 350 347 351 357 356 355 353 344 339 335 331 339 337 337 337 330 319 304 290 278 263 259 251 245 235 236 230 213
202 292 277 222 183 221 280 262 218 217 227 233 242 252 261 284 315 337 345 350 347 349 350 350 354 351 356 353 349 343 346 341 349 349 345 342 336 327 316 303 289 276 263 255 248 239 233 234 226
174 98 179 204 241 240 272 295 180 203 226 233 236 238 247 260 292 320 333 341 343 348 346 347 352 353 356 352 356 354 352 352 347 341 340 339 343 340 332 316 300 285 272 264 256 244 240 236 233
101 123 185 238 261 267 227 269 195 174 249 244 234 231 236 246 273 303 319 329 334 338 339 342 349 352 357 355 355 348 354 348 345 345 345 344 347 346 344 334 320 304 286 275 266 258 243 237 236
138 159 167 214 244 251 217 263 270 191 301 312 224 221 224 234 256 282 303 314 327 333 335 338 344 351 354 351 354 357 352 348 348 349 348 345 347 346 350 341 330 316 304 293 280 266 254 245 241
204 238 235 216 218 224 140 257 270 36 294 272 260 226 215 227 251 272 296 312 325 331 330 331 339 345 349 349 351 353 352 346 347 347 346 343 342 344 345 340 330 322 310 298 289 275 263 253 247
209 259 281 290 282 226 201 248 291 98 266 248 239 234 220 227 245 264 286 298 307 315 314 315 327 334 339 342 346 347 347 343 345 343 340 339 338 338 337 334 330 324 316 304 293 283 272 260 251
192 218 328 286 284 268 219 245 261 177 228 229 231 230 231 232 239 255 274 292 302 305 303 296 302 315 327 333 336 339 345 346 343 339 340 341 340 337 338 335 332 329 320 310 303 286 281 273 259
356 150 210 249 273 266 238 244 246 218 300 252 240 237 236 234 240 249 266 283 293 297 294 286 282 294 308 318 326 331 336 340 337 335 343 342 341 340 338 338 335 333 328 321 314 303 295 281 268
168 189 226 248 269 284 295 109 90 306 313 303 284 250 235 230 236 246 264 282 289 289 286 281 277 282 294 305 316 323 333 334 332 336 340 337 337 340 343 340 337 336 333 328 321 313 307 293 279
235 231 225 256 236 263 287 279 127 254 285 283 278 257 233 228 231 243 261 276 281 287 292 288 284 282 287 294 303 314 326 328 332 338 337 335 338 339 341 341 338 339 336 333 327 318 313 304 295
Height
1543 1544 1545 1547 1544 1539 1545 1545 1540 1541 1541 1543 1543 1542 1542 1544 1547 1554 1554 1551 1552 1554 1554 1553 1554 1555 1556 1556 1556 1557 1557 1557 1557 1557 1557 1557 1557 1557 1557 1557 1557 1557 1557 1556 1556 1556 1556 1556 1555
1544 1544 1547 1546 1539 1545 1550 1545 1545 1545 1545 1545 1545 1545 1545 1549 1552 1554 1553 1553 1554 1555 1555 1556 1555 1556 1556 1557 1557 1557 1557 1557 1557 1557 1557 1557 1557 1556 1556 1556 1556 1556 1556 1556 1556 1555 1555 1555 1555
1544 1544 1547 1541 1540 1548 1552 1547 1546 1547 1547 1546 1546 1548 1550 1555 1555 1555 1555 1555 1555 1556 1556 1555 1555 1556 1556 1556 1556 1556 1556 1556 1556 1556 1556 1556 1556 1556 1555 1555 1555 1555 1555 1555 1555 1555 1555 1555 1555
1545 1546 1545 1540 1548 1549 1549 1548 1547 1547 1548 1548 1547 1551 1556 1559 1557 1556 1555 1556 1556 1556 1556 1555 1555 1555 1555 1555 1556 1555 1555 1555 1555 1555 1555 1554 1554 1554 1554 1554 1554 1554 1554 1554 1554 1554 1554 1554 1554
1545 1545 1541 1545 1548 1549 1550 1550 1549 1548 1549 1550 1549 1553 1558 1560 1558 1557 1556 1556 1556 1556 1555 1555 1554 1555 1554 1554 1554 1554 1554 1553 1553 1553 1553 1553 1553 1553 1553 1553 1553 1553 1553 1553 1553 1553 1553 1553 1553
1546 1542 1543 1549 1549 1549 1551 1552 1551 1550 1552 1553 1553 1555 1561 1561 1559 1558 1556 1556 1556 1555 1555 1554 1554 1554 1553 1553 1553 1552 1552 1551 1551 1551 1551 1551 1551 1551 1551 1551 1551 1551 1551 1551 1552 1552 1552 1552 1552
1546 1541 1543 1544 1549 1550 1552 1553 1552 1552 1553 1556 1556 1557 1562 1562 1560 1559 1557 1557 1556 1555 1555 1554 1554 1553 1552 1551 1551 1550 1550 1549 1548 1548 1548 1548 1548 1548 1549 1549 1549 1549 1549 1550 1550 1550 1550 1551 1551
1545 1542 1543 1544 1547 1549 1553 1554 1555 1555 1557 1559 1559 1559 1562 1563 1561 1560 1559 1558 1557 1556 1555 1554 1552 1551 1550 1549 1548 1548 1547 1546 1546 1546 1545 1545 1546 1546 1546 1546 1547 1547 1547 1548 1548 1548 1549 1549 1550
1545 1542 1544 1545 1546 1549 1553 1554 1557 1558 1559 1560 1561 1562 1564 1563 1563 1562 1561 1560 1558 1557 1555 1553 1552 1550 1549 1548 1546 1545 1544 1543 1543 1542 1542 1542 1542 1543 1544 1544 1544 1545 1545 1546 1546 1547 1547 1547 1548
1544 1542 1545 1546 1546 1548 1553 1554 1557 1558 1559 1561 1563 1564 1564 1564 1564 1563 1562 1560 1559 1557 1555 1553 1551 1550 1548 1546 1544 1543 1541 1540 1539 1539 1539 1539 1539 1540 1541 1541 1541 1542 1542 1543 1544 1544 1545 1546 1548
1543 1543 1546 1549 1550 1551 1553 1556 1557 1558 1559 1562 1564 1565 1565 1565 1564 1563 1562 1561 1559 1557 1555 1552 1551 1549 1547 1544 1542 1541 1539 1537 1536 1535 1535 1535 1536 1536 1537 1537 1538 1538 1539 1540 1541 1542 1543 1545 1547
1544 1547 1548 1551 1553 1553 1554 1556 1558 1559 1562 1564 1565 1565 1566 1565 1565 1563 1562 1560 1558 1556 1554 1551 1549 1547 1545 1543 1540 1538 1537 1535 1533 1533 1532 1532 1532 1532 1533 1533 1534 1535 1536 1537 1538 1539 1541 1543 1545
1544 1549 1551 1553 1554 1555 1556 1557 1559 1562 1564 1564 1565 1566 1566 1565 1565 1563 1562 1560 1558 1555 1553 1550 1547 1544 1542 1540 1537 1536 1534 1532 1531 1529 1529 1529 1529 1529 1529 1530 1530 1531 1532 1533 1535 1536 1538 1540 1542
1546 1549 1552 1554 1555 1556 1557 1559 1560 1563 1564 1565 1566 1566 1566 1565 1564 1563 1561 1559 1557 1554 1551 1548 1545 1543 1540 1537 1535 1534 1531 1529 1528 1527 1526 1526 1526 1526 1526 1526 1527 1527 1528 1529 1531 1533 1535 1536 1538
1548 1550 1552 1554 1555 1556 1557 1558 1559 1562 1564 1565 1565 1565 1565 1565 1564 1563 1561 1558 1556 1553 1550 1547 1544 1541 1538 1535 1532 1530 1528 1527 1525 1524 1524 1523 1523 1523 1523 1522 1523 1524 1525 1526 1527 1528 1530 1532 1534
1546 1547 1549 1551 1554 1556 1558 1553 1558 1561 1563 1563 1564 1564 1565 1564 1563 1562 1560 1558 1555 1552 1549 1546 1543 1539 1536 1533 1530 1528 1526 1524 1523 1522 1521 1520 1520 1519 1519 1519 1519 1520 1521 1522 1523 1524 1527 1528 1530
1543 1544 1543 1549 1552 1553 1554 1551 1557 1560 1562 1562 1563 1563 1563 1563 1562 1561 1559 1557 1554 1551 1548 1545 1542 1538 1535 1531 1529 1526 1524 1522 1520 1519 1518 1517 1517 1516 1516 1515 1516 1516 1517 1518 1519 1521 1522 1524 1526
1540 1539 1541 1544 1548 1551 1550 1549 1555 1559 1560 1560 1561 1561 1562 1561 1561 1560 1558 1556 1553 1550 1548 1545 1541 1537 1534 1531 1528 1525 1523 1521 1519 1517 1515 1514 1513 1513 1512 1512 1512 1513 1513 1514 1515 1517 1518 1520 1522
1536 1538 1541 1546 1550 1550 1548 1547 1550 1556 1558 1558 1559 1560 1560 1560 1560 1559 1557 1555 1553 1550 1547 1544 1541 1538 1534 1530 1528 1525 1522 1520 1518 1516 1513 1512 1510 1509 1509 1509 1509 1509 1510 1510 1512 1513 1514 1516 1518
1537 1540 1543 1549 1551 1550 1547 1546 1547 1552 1554 1556 1556 1557 1558 1559 1558 1558 1556 1554 1552 1549 1547 1544 1541 1537 1534 1530 1527 1524 1522 1519 1517 1514 1512 1510 1508 1507 1506 1505 1505 1505 1505 1506 1507 1509 1510 1512 1514
1541 1542 1544 1548 1551 1550 1549 1544 1545 1548 1552 1554 1555 1556 1556 1557 1557 1556 1555 1553 1551 1549 1546 1543 1540 1537 1534 1530 1527 1524 1522 1519 1517 1514 1511 1509 1507 1505 1504 1503 1502 1502 1502 1503 1503 1505 1506 1507 1509
1544 1546 1547 1549 1549 1546 1551 1548 1540 1542 1547 1550 1551 1553 1554 1555 1555 1555 1554 1552 1550 1548 1545 1543 1540 1537 1533 1530 1527 1524 1522 1519 1516 1513 1510 1508 1506 1503 1502 1500 1499 1499 1499 1499 1499 1500 1501 1503 1504
1545 1548 1547 1548 1547 1547 1546 1548 1538 1542 1543 1543 1547 1550 1552 1553 1554 1553 1552 1551 1549 1547 1544 1541 1539 1536 1533 1530 1527 1524 1522 1519 1516 1513 1510 1507 1505 1502 1500 1499 1497 1496 1496 1496 1496 1496 1497 1498 1499
1548 1548 1548 1548 1545 1550 1545 1548 1542 1537 1539 1541 1545 1547 1549 1551 1552 1552 1551 1550 1548 1546 1543 1541 1538 1535 1532 1530 1527 1524 1521 1519 1516 1513 1510 1507 1505 1502 1500 1497 1496 1494 1493 1493 1492 1492 1493 1494 1494
1546 1546 1549 1549 1549 1546 1546 1548 1541 1536 1540 1542 1544 1545 1547 1549 1550 1550 1549 1548 1547 1545 1542 1540 1538 1535 1532 1530 1527 1524 1521 1518 1516 1512 1509 1506 1504 1501 1499 1496 1494 1493 1491 1490 1489 1489 1489 1489 1489
1544 1543 1549 1552 1548 1543 1547 1544 1535 1537 1541 1542 1543 1544 1546 1547 1548 1548 1547 1547 1545 1543 1541 1539 1537 1534 1532 1529 1527 1524 1521 1518 1515 1512 1509 1506 1503 1501 1498 1495 1493 1491 1489 1488 1486 1485 1485 1484 1484
1544 1543 1544 1545 1546 1547 1538 1536 1533 1537 1538 1540 1542 1543 1544 1545 1546 1546 1546 1545 1544 1542 1540 1538 1536 1534 1531 1529 1526 1524 1521 1518 1515 1512 1509 1506 1503 1500 1497 1494 1491 1489 1487 1485 1484 1482 1481 1480 1480
1544 1544 1546 1547 1550 1546 1541 1539 1535 1533 1534 1536 1538 1540 1541 1542 1543 1544 1544 1543 1542 1540 1538 1536 1534 1533 1531 1528 1525 1523 1520 1517 1514 1511 1508 1505 1502 1499 1496 1493 1491 1488 1485 1484 1482 1480 1478 1477 1476
1548 1548 1546 1545 1547 1548 1544 1538 1530 1532 1533 1534 1535 1537 1538 1540 1541 1541 1541 1541 1540 1538 1537 1535 1533 1531 1529 1527 1525 1522 1519 1516 1514 1511 1507 1504 1502 1499 1496 1492 1490 1487 1484 1482 1480 1478 1476 1474 1473
1542 1543 1544 1546 1545 1547 1547 1540 1530 1532 1534 1534 1534 1535 1536 1537 1538 1539 1539 1539 1538 1537 1535 1534 1532 1530 1528 1525 1523 1521 1518 1516 1513 1510 1507 1504 1501 1498 1495 1492 1489 1486 1483 1480 1478 1476 1474 1472 1470